This is the latest recevied weather packets stored in our database for station/object KB0BDN-13. If no packets are shown the sender has not sent any weather packets the latest 10 day(s).
| Time | Temp. | Humidity | Pressure | Rain* | Wind** | Luminosity | Snow |
|---|---|---|---|---|---|---|---|
| 1777811527 | 6.11° C | 92% | - | 0 mm | - | - | - |
| 1777810627 | 5° C | 96% | - | 0 mm | - | - | - |
| 1777809727 | 4.44° C | 96% | - | 0 mm | - | - | - |
| 1777808827 | 3.33° C | 95% | - | 0 mm | - | - | - |
| 1777807927 | 1.67° C | 95% | - | 0 mm | - | - | - |
| 1777807027 | 0° C | 94% | - | 0 mm | - | - | - |
| 1777806127 | -1.11° C | 92% | - | 0 mm | - | - | - |
| 1777805227 | -1.11° C | 91% | - | 0 mm | - | - | - |
| 1777804326 | -1.67° C | 90% | - | 0 mm | - | - | - |
| 1777803427 | -1.67° C | 89% | - | 0 mm | - | - | - |
| 1777802526 | -1.11° C | 88% | - | 0 mm | - | - | - |
| 1777801627 | -1.11° C | 87% | - | 0 mm | - | - | - |
| 1777800727 | -0.56° C | 86% | - | 0 mm | - | - | - |
| 1777799826 | 0° C | 85% | - | 0 mm | - | - | - |
| 1777798926 | 0.56° C | 88% | - | 0 mm | - | - | - |
| 1777798026 | 0.56° C | 87% | - | 0 mm | - | - | - |
| 1777797126 | 0.56° C | 84% | - | 0 mm | - | - | - |
| 1777796226 | 0.56° C | 78% | - | 0 mm | - | - | - |
| 1777795326 | 1.11° C | 74% | - | 0 mm | - | - | - |
| 1777794426 | 1.67° C | 71% | - | 0 mm | - | - | - |
| 1777793526 | 2.78° C | 69% | - | 0 mm | - | - | - |
| 1777792626 | 3.33° C | 66% | - | 0 mm | - | - | - |
| 1777791726 | 3.89° C | 64% | - | 0 mm | - | - | - |
| 1777790826 | 4.44° C | 64% | 1000 hPa | 0 mm | - | - | - |
| 1777789926 | 4.44° C | 60% | 1000.1 hPa | 0 mm | - | - | - |
* Rain latest hour (hover to see other rain measurements)
** Current wind speed in m/s (hover to see current wind gust speed)